Overview Statistics Trail Chart Weather Telemetry Raw packets
 

This is the latest recevied weather packets stored in our database for station/object KL4TQ. If no packets are shown the sender has not sent any weather packets the latest 10 day(s).

<< 39 40 41 42 43 44 45 >>
Time Temp. Humidity Pressure Rain* Wind** Luminosity Snow
1777430469 2.78° C 90% 857 hPa 0 mm - 87 W/m² -
1777430169 2.78° C 89% 857 hPa 0 mm - 141 W/m² -
1777429869 2.78° C 90% 857 hPa 0 mm - 239 W/m² -
1777429568 2.78° C 90% 857 hPa 0 mm - 216 W/m² -
1777429268 2.78° C 89% 857 hPa 0 mm - 193 W/m² -
1777428969 2.78° C 89% 857 hPa 0 mm - 198 W/m² -
1777428670 3.33° C 87% 857 hPa 0 mm - 263 W/m² -
1777428368 3.33° C 87% 857 hPa 0 mm - 295 W/m² -
1777428069 3.33° C 87% 857 hPa 0 mm - 314 W/m² -
1777427768 3.33° C 86% 857 hPa 0 mm - 286 W/m² -
1777427468 3.33° C 86% 857 hPa 0 mm - 291 W/m² -
1777427169 3.33° C 87% 857 hPa 0 mm - 263 W/m² -
1777426868 3.33° C 87% 857 hPa 0 mm - 199 W/m² -
1777426568 3.33° C 87% 857 hPa 0 mm - 193 W/m² -
1777426269 3.33° C 87% 857 hPa 0 mm - 237 W/m² -
1777425968 3.33° C 87% 857 hPa 0 mm - 139 W/m² -
1777425668 3.89° C 86% 857 hPa 0 mm - 140 W/m² -
1777425369 4.44° C 85% 857 hPa 0 mm - 168 W/m² -
1777425068 5° C 81% 857 hPa 0 mm - 114 W/m² -
1777424768 5.56° C 77% 857 hPa 0 mm - 129 W/m² -
1777424468 5.56° C 77% 857 hPa 0 mm - 187 W/m² -
1777424168 6.11° C 75% 857 hPa 0 mm - 258 W/m² -
1777423868 6.67° C 73% 857 hPa 0 mm - 396 W/m² -
1777423568 7.22° C 70% 857 hPa 0 mm - 385 W/m² -
1777423269 7.78° C 68% 857 hPa 0 mm - 470 W/m² -

* Rain latest hour (hover to see other rain measurements)
** Current wind speed in m/s (hover to see current wind gust speed)